Вернуться в каталог

DELTA 1 DEB

АктивенSSO
NORAD 12170·DEBRIS·🇺🇸 United States

Запущен Mar 5, 1978 с Vandenberg Space Force Base

Loading…

Ближайшие Пролёты (ближайшие 24 часа)

TLE

СвежийSource: Space-Track

Эпоха: Sep 13, 2026, 14:46 UTC

1 12170U 78026K   26256.61573919  .00000230  00000-0  12409-3 0  9990
2 12170  98.8533 292.1588 0043872 139.4033 346.4309 14.21562174355512

Отслеживайте DELTA 1 DEB в реальном времени с AllMySat

Download on the App Store